This is the latest recevied weather packets stored in our database for station/object NC4M. If no packets are shown the sender has not sent any weather packets the latest 10 day(s).
| Time | Temp. | Humidity | Pressure | Rain* | Wind** | Luminosity | Snow |
|---|---|---|---|---|---|---|---|
| 1787848796 | 27.78° C | 55% | 1019.4 hPa | 0 mm | - | 772 W/m² | - |
| 1787848495 | 27.78° C | 57% | 1019.6 hPa | 0 mm | - | 765 W/m² | - |
| 1787848191 | 27.22° C | 56% | 1019.4 hPa | 0 mm | - | 505 W/m² | - |
| 1787847890 | 27.22° C | 57% | 1019.7 hPa | 0 mm | - | 823 W/m² | - |
| 1787847585 | 27.22° C | 58% | 1019.4 hPa | 0 mm | - | 817 W/m² | - |
| 1787847281 | 26.67° C | 58% | 1019.5 hPa | 0 mm | - | 268 W/m² | - |
| 1787846978 | 26.67° C | 56% | 1019.4 hPa | 0 mm | - | 629 W/m² | - |
| 1787846677 | 26.67° C | 57% | 1019.6 hPa | 0 mm | - | 515 W/m² | - |
| 1787846372 | 26.67° C | 59% | 1019.5 hPa | 0 mm | - | 347 W/m² | - |
| 1787846068 | 26.67° C | 59% | 1019.4 hPa | 0 mm | - | 655 W/m² | - |
| 1787845763 | 26.67° C | 59% | 1019.5 hPa | 0 mm | - | 279 W/m² | - |
| 1787845459 | 26.11° C | 60% | 1019.5 hPa | 0 mm | - | 151 W/m² | - |
| 1787845155 | 26.11° C | 58% | 1019.3 hPa | 0 mm | - | 95 W/m² | - |
| 1787844850 | 25.56° C | 62% | 1019.2 hPa | 0 mm | - | 84 W/m² | - |
| 1787844548 | 25.56° C | 63% | 1019.4 hPa | 0 mm | - | 74 W/m² | - |
| 1787844245 | 25.56° C | 65% | 1019 hPa | 0 mm | - | 74 W/m² | - |
| 1787843943 | 25.56° C | 62% | 1018.9 hPa | 0 mm | - | 73 W/m² | - |
| 1787843638 | 25.56° C | 67% | 1018.9 hPa | 0 mm | - | 65 W/m² | - |
| 1787843336 | 25° C | 66% | 1019.2 hPa | 0 mm | - | 75 W/m² | - |
| 1787843036 | 25° C | 66% | 1019.1 hPa | 0 mm | - | 61 W/m² | - |
| 1787842735 | 25° C | 68% | 1018.8 hPa | 0 mm | - | 121 W/m² | - |
| 1787842431 | 25° C | 70% | 1018.7 hPa | 0 mm | - | 57 W/m² | - |
| 1787842131 | 24.44° C | 70% | 1018.7 hPa | 0 mm | - | 59 W/m² | - |
| 1787841826 | 24.44° C | 73% | 1018.7 hPa | 0 mm | - | 80 W/m² | - |
| 1787841522 | 24.44° C | 73% | 1018.8 hPa | 0 mm | - | 55 W/m² | - |
* Rain latest hour (hover to see other rain measurements)
** Current wind speed in m/s (hover to see current wind gust speed)